Vilalleons





Hora UTC 20:35
Temperatura -0.8 ºC
Humitat 94.0 %
Pressió 1002.0 hPa
Pluja 0.0 mm
Velocitat vent 3.2 km/h
Direcció vent ESE

Dades diàries 2021-11-27



Hora UTC (hivern +1h; estiu +2h)
Temperatura (ºC) Humitat (%) Pressió (hPa) Velocitat vent (km/h) Precipitació (mm)
Hora UTC Aire Humitat Pressió Vel. Dir. Vel. Max Dir. Intent. màx 5 min.
00:05 1.2 96.0 1003.4 3.2 SE 3.2 0.0
00:10 1.3 96.0 1003.6 0.0 SE 3.2 0.0
00:15 1.3 96.0 1003.3 0.0 SE 3.2 0.0
00:20 1.3 96.0 1003.2 1.6 SE 3.2 0.0
00:25 1.3 96.0 1003.0 0.0 SE 3.2 0.0
00:30 1.4 96.0 1003.1 0.0 SE 1.6 0.0
00:35 1.4 96.0 1003.3 1.6 SE 1.6 0.0
00:40 1.4 96.0 1003.1 1.6 SE 3.2 0.0
00:45 1.3 96.0 1003.0 1.6 SE 3.2 0.0
00:50 1.3 96.0 1002.9 0.0 SE 3.2 0.0
00:55 1.2 96.0 1002.9 1.6 SE 3.2 0.0
01:00 1.1 95.0 1002.8 3.2 SE 3.2 0.0
01:05 0.9 95.0 1002.7 1.6 SE 4.8 0.0
01:10 0.7 95.0 1002.6 3.2 SE 4.8 0.0
01:15 0.6 95.0 1002.7 1.6 SE 4.8 0.0
01:20 0.4 95.0 1002.7 1.6 SE 3.2 0.0
01:25 0.3 95.0 1002.6 1.6 SE 3.2 0.0
01:30 0.1 95.0 1002.6 1.6 SE 3.2 0.0
01:35 0.0 95.0 1002.4 1.6 SE 3.2 0.0
01:35 -0.1 95.0 1002.3 3.2 SE 4.8 0.0
01:40 -0.3 95.0 1002.2 0.0 SE 4.8 0.0
01:45 -0.3 95.0 1002.4 0.0 SE 4.8 0.0
01:50 -0.3 96.0 1002.3 0.0 SE 3.2 0.0
01:55 -0.4 96.0 1002.2 1.6 SE 4.8 0.0
02:00 -0.6 95.0 1002.1 0.0 SE 4.8 0.0
02:05 -0.6 96.0 1002.2 1.6 SE 3.2 0.0
02:10 -0.7 95.0 1002.0 3.2 ESE 6.4 0.0
02:15 -0.7 96.0 1002.1 0.0 ESE 6.4 0.0
02:20 -0.8 96.0 1002.0 3.2 ESE 4.8 0.0
02:25 -0.9 95.0 1002.0 3.2 ESE 4.8 0.0
02:30 -1.0 95.0 1001.9 1.6 SE 4.8 0.0
02:35 -1.1 95.0 1002.0 1.6 SE 4.8 0.0
02:40 -1.1 96.0 1002.0 3.2 SE 4.8 0.0
02:50 -1.1 96.0 1001.9 1.6 SE 4.8 0.0
02:55 -1.0 96.0 1001.9 3.2 SE 4.8 0.0
03:00 -0.9 96.0 1001.7 1.6 SE 4.8 0.0
03:05 -0.8 97.0 1001.6 0.0 SE 4.8 0.0
03:10 -0.6 97.0 1001.6 0.0 SE 3.2 0.0
03:15 -0.4 97.0 1001.3 1.6 N 4.8 0.0
03:20 -0.2 97.0 1001.3 0.0 N 4.8 0.0
03:25 0.0 98.0 1001.1 1.6 NNW 8.0 0.0
03:30 0.3 98.0 1001.0 1.6 NW 8.0 0.0
03:35 0.4 98.0 1000.9 1.6 W 8.0 0.0
03:40 0.6 97.0 1001.0 0.0 W 4.8 0.0
03:45 0.6 98.0 1000.8 0.0 W 4.8 0.0
03:50 0.6 97.0 1000.8 0.0 W 3.2 0.0
03:55 0.6 97.0 1000.7 0.0 W 0.0 0.0
04:00 0.7 97.0 1000.8 0.0 W 1.6 0.0
04:05 0.7 97.0 1000.8 0.0 W 1.6 0.0
04:10 0.7 97.0 1000.9 0.0 W 3.2 0.0
04:15 0.7 97.0 1000.8 0.0 W 3.2 0.0
04:20 0.7 97.0 1000.8 0.0 W 3.2 0.0
04:25 0.7 97.0 1000.8 0.0 W 3.2 0.0
04:30 0.8 97.0 1000.6 0.0 W 3.2 0.0
04:30 0.8 97.0 1000.4 0.0 W 1.6 0.0
04:40 0.8 97.0 1000.4 0.0 SW 1.6 0.0
04:45 0.7 97.0 1000.3 0.0 SW 0.0 0.0
04:50 0.7 97.0 1000.2 0.0 SW 0.0 0.0
04:55 0.7 97.0 1000.2 0.0 SW 0.0 0.0
05:00 0.7 97.0 1000.1 0.0 SW 3.2 0.0
05:05 0.7 97.0 1000.0 0.0 SW 3.2 0.0
05:10 0.7 97.0 1000.0 0.0 SW 3.2 0.0
05:15 0.7 97.0 1000.2 0.0 SW 3.2 0.0
05:20 0.7 97.0 1000.0 0.0 SW 1.6 0.0
05:25 0.6 97.0 1000.0 0.0 SW 0.0 0.0
05:30 0.7 97.0 999.9 1.6 SW 3.2 0.0
05:35 0.7 97.0 999.8 0.0 SW 3.2 0.0
05:40 0.7 97.0 999.8 1.6 SW 1.6 0.0
05:45 0.7 97.0 999.8 0.0 SW 1.6 0.0
05:50 0.6 97.0 999.8 0.0 SW 3.2 0.0
05:55 0.7 97.0 1000.0 0.0 SW 3.2 0.0
06:00 0.7 97.0 1000.0 0.0 SW 1.6 0.0
06:00 0.7 97.0 1000.1 0.0 SW 3.2 0.0
06:10 0.8 97.0 999.9 0.0 SW 3.2 0.0
06:15 0.8 97.0 999.9 0.0 SW 1.6 0.0
06:20 0.8 97.0 999.9 0.0 SW 1.6 0.0
06:20 0.9 97.0 1000.0 0.0 SW 1.6 0.0
06:30 0.9 97.0 999.9 0.0 SW 1.6 0.0
06:35 0.9 97.0 999.8 0.0 SW 1.6 0.0
06:40 0.9 97.0 999.8 3.2 SW 3.2 0.0
06:45 1.0 97.0 999.6 3.2 SW 3.2 0.0
06:50 1.0 97.0 999.6 0.0 SW 3.2 0.0
06:55 1.0 97.0 999.6 0.0 SW 1.6 0.0
07:00 1.0 97.0 999.6 0.0 SW 3.2 0.0
07:05 1.1 97.0 999.6 1.6 SW 3.2 0.0
07:10 1.1 97.0 999.6 0.0 SW 1.6 0.0
07:15 1.1 97.0 999.7 0.0 SW 1.6 0.0
07:20 1.2 97.0 999.6 1.6 SW 1.6 0.0
07:25 1.2 98.0 999.8 1.6 SW 1.6 0.0
07:30 1.3 98.0 999.8 1.6 SW 3.2 0.0
07:35 1.3 98.0 999.8 0.0 SW 3.2 0.0
07:40 1.4 98.0 999.5 0.0 SW 1.6 0.0
07:45 1.5 98.0 999.4 0.0 SW 1.6 0.0
07:50 1.6 98.0 999.6 1.6 SW 1.6 0.0
07:55 1.7 98.0 999.6 0.0 SW 1.6 0.0
08:00 1.7 98.0 999.6 0.0 SW 1.6 0.0
08:05 1.8 98.0 999.7 0.0 SW 3.2 0.0
08:10 1.9 98.0 999.7 0.0 NW 3.2 0.0
08:15 1.9 98.0 999.8 3.2 NNW 3.2 0.0
08:20 2.0 98.0 999.8 3.2 NNW 3.2 0.0
08:25 2.1 98.0 999.9 3.2 NW 6.4 0.0
08:30 2.2 98.0 999.9 3.2 N 6.4 0.0
08:35 2.2 97.0 999.9 1.6 NE 4.8 0.0
08:40 2.3 97.0 999.8 1.6 NNE 4.8 0.0
08:45 2.3 97.0 999.7 0.0 ENE 4.8 0.0
08:50 2.3 97.0 999.7 1.6 ENE 3.2 0.0
08:55 2.3 96.0 999.7 0.0 WNW 3.2 0.0
09:00 2.3 96.0 999.6 0.0 WNW 3.2 0.0
09:05 2.4 96.0 999.5 1.6 W 4.8 0.0
09:10 2.4 96.0 999.5 0.0 W 4.8 0.0
09:15 2.5 96.0 999.5 1.6 W 3.2 0.0
09:20 2.6 95.0 999.5 1.6 W 3.2 0.0
09:25 2.6 95.0 999.6 1.6 W 3.2 0.0
09:30 2.7 95.0 999.6 1.6 W 3.2 0.0
09:35 2.7 95.0 999.7 1.6 E 4.8 0.0
09:40 2.8 96.0 999.8 0.0 E 4.8 0.0
09:45 2.9 96.0 999.9 3.2 ESE 4.8 0.0
09:50 3.1 96.0 999.9 3.2 ESE 4.8 0.0
09:55 3.2 95.0 999.8 1.6 SSW 6.4 0.0
10:00 3.3 95.0 999.8 1.6 SSW 6.4 0.0
10:05 3.3 95.0 999.9 0.0 SSW 4.8 0.0
10:10 3.4 95.0 999.7 1.6 SSW 4.8 0.0
10:15 3.6 94.0 999.7 3.2 WSW 6.4 0.0
10:20 3.7 94.0 999.7 1.6 WSW 6.4 0.0
10:25 3.9 94.0 999.5 1.6 WSW 4.8 0.0
10:30 4.1 94.0 999.6 4.8 WSW 6.4 0.0
10:35 4.2 92.0 999.6 3.2 SSW 8.0 0.0
10:35 4.3 92.0 999.4 3.2 WSW 8.0 0.0
10:40 4.4 90.0 999.4 4.8 NNE 6.4 0.0
10:45 4.4 90.0 999.4 1.6 WNW 6.4 0.0
10:50 4.6 91.0 999.4 3.2 WNW 6.4 0.0
10:55 4.6 90.0 999.4 3.2 N 4.8 0.0
11:00 4.7 90.0 999.3 3.2 ESE 6.4 0.0
11:05 4.7 91.0 999.4 3.2 ESE 4.8 0.0
11:10 4.8 90.0 999.5 1.6 SE 4.8 0.0
11:15 4.8 89.0 999.4 3.2 SW 6.4 0.0
11:20 4.9 90.0 999.3 4.8 WSW 9.7 0.0
11:25 5.0 90.0 999.2 11.3 W 12.9 0.0
11:30 5.1 89.0 999.2 4.8 SW 12.9 0.0
11:35 5.2 89.0 999.0 6.4 WSW 12.9 0.0
11:40 5.3 88.0 999.1 1.6 W 12.9 0.0
11:45 5.3 87.0 999.2 4.8 NNW 8.0 0.0
11:50 5.3 88.0 999.2 4.8 NNE 8.0 0.0
11:55 5.3 87.0 999.2 1.6 NE 8.0 0.0
12:00 5.2 87.0 999.0 1.6 NE 6.4 0.0
12:05 5.3 87.0 999.0 1.6 N 4.8 0.0
12:10 5.3 87.0 999.0 3.2 NW 6.4 0.0
12:15 5.4 87.0 999.0 3.2 NNE 8.0 0.0
12:25 5.4 87.0 999.0 1.6 NNE 8.0 0.0
12:30 5.4 86.0 999.1 3.2 NE 8.0 0.0
12:35 5.4 85.0 999.1 0.0 NNE 6.4 0.0
12:40 5.5 86.0 999.0 0.0 NW 6.4 0.0
12:45 5.9 87.0 999.0 3.2 W 4.8 0.0
12:50 6.2 86.0 998.9 8.0 NNW 12.9 0.0
12:55 6.4 86.0 999.0 3.2 SW 12.9 0.0
13:00 6.6 83.0 998.7 3.2 NW 16.1 0.0
13:05 6.8 84.0 998.5 4.8 NW 16.1 0.0
13:10 6.9 83.0 998.5 4.8 WNW 9.7 0.0
13:15 6.9 83.0 998.4 4.8 NE 9.7 0.0
13:20 7.1 83.0 998.3 0.0 N 9.7 0.0
13:25 7.3 82.0 998.2 3.2 NE 8.0 0.0
13:30 7.5 80.0 998.2 8.0 NNE 16.1 0.0
13:35 7.7 79.0 998.4 3.2 NNE 16.1 0.0
13:40 7.9 81.0 998.3 4.8 ESE 16.1 0.0
13:45 8.3 83.0 998.5 1.6 WSW 11.3 0.0
13:50 8.6 77.0 998.5 0.0 SE 11.3 0.0
13:55 8.6 76.0 998.4 3.2 ENE 4.8 0.0
14:00 8.6 75.0 998.3 6.4 NNE 8.0 0.0
14:05 8.4 74.0 998.4 12.9 ESE 14.5 0.0
14:10 8.1 75.0 998.1 12.9 ESE 16.1 0.0
14:15 7.6 78.0 998.2 11.3 ESE 16.1 0.0
14:20 7.1 79.0 998.1 16.1 ESE 16.1 0.0
14:25 6.7 81.0 998.3 11.3 SE 19.3 0.0
14:30 6.4 81.0 998.5 9.7 SE 19.3 0.0
14:35 6.3 81.0 998.5 9.7 E 19.3 0.0
14:40 6.2 81.0 998.6 6.4 ESE 16.1 0.0
14:45 6.1 81.0 998.7 6.4 ESE 14.5 0.0
14:50 6.1 81.0 998.7 11.3 ESE 12.9 0.0
14:55 6.0 81.0 999.0 3.2 E 12.9 0.0
15:00 6.1 82.0 999.0 1.6 E 12.9 0.0
15:05 6.1 82.0 999.0 1.6 ENE 4.8 0.0
15:10 6.1 83.0 999.2 1.6 ENE 3.2 0.0
15:15 6.1 84.0 999.2 1.6 ENE 3.2 0.0
15:20 6.0 85.0 999.2 3.2 ESE 4.8 0.0
15:25 5.8 86.0 999.2 1.6 ESE 4.8 0.0
15:30 5.7 86.0 999.2 0.0 ESE 1.6 0.0
15:35 5.6 86.0 999.3 1.6 ESE 3.2 0.0
15:40 5.4 87.0 999.2 1.6 ESE 3.2 0.0
15:45 5.3 87.0 999.4 0.0 ESE 3.2 0.0
15:50 5.2 88.0 999.6 1.6 ESE 3.2 0.0
15:55 5.0 88.0 999.7 0.0 ESE 3.2 0.0
16:00 4.8 88.0 999.7 1.6 ESE 3.2 0.0
16:05 4.7 89.0 999.7 1.6 ESE 3.2 0.0
16:10 4.5 88.0 999.6 0.0 WSW 3.2 0.0
16:15 4.5 88.0 999.8 0.0 WSW 3.2 0.0
16:20 4.4 88.0 999.7 3.2 WSW 3.2 0.0
16:25 4.3 89.0 999.8 1.6 SSE 8.0 0.0
16:30 4.3 89.0 999.9 1.6 SSE 8.0 0.0
16:35 4.3 89.0 999.8 3.2 SSE 4.8 0.0
16:40 4.2 89.0 999.8 4.8 S 6.4 0.0
16:45 4.1 89.0 999.9 1.6 SSW 8.0 0.0
16:50 4.2 88.0 1000.0 3.2 SW 8.0 0.0
16:55 4.2 88.0 1000.0 4.8 SSW 8.0 0.0
17:00 4.2 88.0 1000.2 4.8 SW 8.0 0.0
17:05 4.2 88.0 1000.2 1.6 SW 8.0 0.0
17:10 4.2 88.0 1000.4 1.6 SW 9.7 0.0
17:15 4.2 88.0 1000.4 6.4 SW 12.9 0.0
17:20 4.2 88.0 1000.5 1.6 SW 9.7 0.0
17:25 4.2 87.0 1000.6 3.2 SW 4.8 0.0
17:30 3.9 88.0 1000.6 1.6 SSW 4.8 0.0
17:35 3.7 88.0 1000.7 3.2 SSW 4.8 0.0
17:35 3.5 89.0 1000.7 3.2 SE 6.4 0.0
17:45 3.2 90.0 1000.6 3.2 SE 6.4 0.0
17:50 3.0 90.0 1000.8 3.2 SE 6.4 0.0
17:55 2.8 90.0 1000.7 3.2 SSE 4.8 0.0
18:00 2.7 90.0 1000.8 0.0 SSE 4.8 0.0
18:05 2.6 91.0 1000.8 0.0 SSE 3.2 0.0
18:10 2.4 91.0 1000.8 0.0 SSE 3.2 0.0
18:15 2.2 90.0 1001.1 3.2 SSE 4.8 0.0
18:20 1.9 90.0 1001.0 3.2 SSE 4.8 0.0
18:25 1.7 91.0 1001.1 1.6 SSE 3.2 0.0
18:30 1.5 91.0 1001.3 1.6 SSE 3.2 0.0
18:35 1.3 92.0 1001.3 0.0 SSE 3.2 0.0
18:40 1.2 92.0 1001.2 4.8 SSE 6.4 0.0
18:45 0.9 91.0 1001.3 3.2 SE 6.4 0.0
18:50 0.8 92.0 1001.3 4.8 ESE 6.4 0.0
18:55 0.8 93.0 1001.4 4.8 ESE 4.8 0.0
19:00 0.7 92.0 1001.3 3.2 ESE 6.4 0.0
19:05 0.6 93.0 1001.5 3.2 ESE 4.8 0.0
19:10 0.4 93.0 1001.6 1.6 ESE 4.8 0.0
19:15 0.4 93.0 1001.5 0.0 ESE 4.8 0.0
19:20 0.2 93.0 1001.5 3.2 ESE 4.8 0.0
19:25 0.2 93.0 1001.5 3.2 ESE 4.8 0.0
19:30 0.1 93.0 1001.4 3.2 ESE 4.8 0.0
19:35 -0.1 94.0 1001.6 0.0 ESE 4.8 0.0
19:40 -0.1 94.0 1001.6 3.2 ESE 4.8 0.0
19:45 -0.3 93.0 1001.6 3.2 ESE 4.8 0.0
19:50 -0.4 93.0 1001.6 1.6 ESE 4.8 0.0
19:55 -0.4 94.0 1001.6 4.8 ESE 4.8 0.0
20:00 -0.4 94.0 1001.7 3.2 ESE 4.8 0.0
20:05 -0.4 94.0 1001.7 1.6 ESE 4.8 0.0
20:10 -0.5 94.0 1001.8 3.2 ESE 4.8 0.0
20:15 -0.6 94.0 1001.9 1.6 ESE 4.8 0.0
20:20 -0.6 94.0 1001.9 3.2 ESE 4.8 0.0
20:25 -0.7 94.0 1002.0 3.2 ESE 4.8 0.0
20:30 -0.8 94.0 1002.2 1.6 ESE 4.8 0.0
20:35 -0.8 94.0 1002.0 3.2 ESE 4.8 0.0
Màxima 8.6 98.0 1003.6 16.1 ESE 19.3 0.0
Mínima -1.1 74.0 998.1
Total 0.0